sat.trackr.live / text

‹ back to catalog

ONEWEB-0584

NORAD 54651 · 2022-166K

PAYLOAD ACTIVE UNKNOWN

§ Identity

Operator
Country
UK
Launch date
2022-12-08
Launch site
AFETR
Launch vehicle
Mass (kg)
RCS (m²)

Purposes: comms

External: N2YO · Heavens-Above · Gunter

§ Orbital elements

Epoch: 2026-09-20T03:53:32.237952Z

Period
108.94 min
Inclination
87.9278°
Eccentricity
0.0002099
Mean motion
13.21824154 rev/d
Perigee alt
1,176.2 km
Apogee alt
1,179.3 km
Semi-major
7,555.9 km
B*
8.8679e-5
RAAN
225.0748°
Arg perigee
82.3540°
Mean anomaly
277.7833°
Rev number
18,406

§ Raw data

ONEWEB-05841 54651U 22166K   26263.16217868  .00000050  00000+0  88679-4 0  99922 54651  87.9278 225.0748 0002099  82.3540 277.7833 13.21824154184061

JSON: /api/v1/satellites/54651 · /tle

For live sub-satellite position, see the globe view (requires WebGL).

§ Visibility from observer

Set your observer location to see the next 7 days of passes ≥ 10°. The values pass through the URL so the page stays shareable.

No JS? Fill the form by hand. The geolocation button needs JavaScript.